Hourly Data Report for September 06, 2017

All times are specified in Local Standard Time (LST). Add 1 hour to adjust for Daylight Saving Time where and when it is observed.

ALGONQUIN PARK EAST GATE
ONTARIO

45°32'00.000" N
78°16'00.000" W
397.00 m
6080192
71581
TNK

Download Data

Hourly Data (September 2017)
Hourly Data Report for September 6, 2017
Temp Definition
°C
Dew Point Temp Definition
°C
Rel Hum Definition
%
Wind Dir Definition
10's deg

Wind Spd Definition
km/h
Visibility Definition
km
Stn Press Definition
kPa
Hmdx Definition


Wind Chill Definition


Weather Definition


TIME
00:00 9.1 7.9 92 0 1   96.31     LegendNANA
01:00 8.4 7.3 93   0   96.31     LegendNANA
02:00 7.6 6.7 94   0   96.34     LegendNANA
03:00 7.2 6.2 94   0   96.38     LegendNANA
04:00 7.3 6.4 94 0 1   96.38     LegendNANA
05:00 6.9 6.0 94 0 1   96.41     LegendNANA
06:00 6.3 5.4 94 36 1   96.48     LegendNANA
07:00 6.3 5.5 94 36 2   96.49     LegendNANA
08:00 9.1 8.2 94 0 1   96.53     LegendNANA
09:00 12.5 9.2 80 36 2   96.52     LegendNANA
10:00 16.0 8.9 63 LegendMM LegendMM   96.51     LegendNANA
11:00 17.3 8.7 57 LegendMM LegendMM   96.49     LegendNANA
12:00 17.8 7.9 52 LegendMM LegendMM   96.45     LegendNANA
13:00 17.7 8.9 56 LegendMM LegendMM   96.46     LegendNANA
14:00 18.2 7.6 50 LegendMM LegendMM   96.45     LegendNANA
15:00 19.1 8.3 50 LegendMM LegendMM   96.40     LegendNANA
16:00 18.6 8.6 52 LegendMM LegendMM   96.39     LegendNANA
17:00 16.8 11.7 72 LegendMM LegendMM   96.43     LegendNANA
18:00 15.9 10.3 69 LegendMM LegendMM   96.46     LegendNANA
19:00 13.5 9.1 74 LegendMM LegendMM   96.52     LegendNANA
20:00 11.2 8.4 83 LegendMM LegendMM   96.52     LegendNANA
21:00 9.4 7.5 88 LegendMM LegendMM   96.49     LegendNANA
22:00 8.3 6.7 90 LegendMM LegendMM   96.46     LegendNANA
23:00 8.6 7.2 91 LegendMM LegendMM   96.46     LegendNANA

Notes on Data Quality.

Legend

  • E = Estimated
  • M = Missing
  • NA = Not Available
  • ‡ = Partner data that is not subject to review by the National Climate Archives
Date modified: